OH5GWF-1 Weather Reports


Display with metric or nautical units.
time (UTC)temp
F
wind
direction
speed
MPH
gust
MPH
rain 1hr
in
rain 24hr
in
rain mn
in
humidity
%
barometer
mb
20260901065850 63 1 3.0 3.0 0.00 0.30 0.00 84 1007.4
20260901065148 62 1 3.0 3.0 0.00 0.30 0.00 84 1007.6
20260901064825 62 1 3.0 3.0 0.00 0.30 0.00 84 1007.7
20260901064447 62 1 3.0 3.0 0.00 0.30 0.00 84 1007.7
20260901063747 61 1 3.0 3.0 0.00 0.30 0.00 84 1007.6
20260901063723 61 1 3.0 3.0 0.00 0.30 0.00 84 1007.7
20260901063055 61 1 3.0 3.0 0.00 0.30 0.00 84 1007.7
20260901062619 61 1 3.0 3.0 0.00 0.30 0.00 84 1007.6
20260901062353 61 1 3.0 3.0 0.00 0.30 0.00 84 1007.6
20260901061650 60 1 3.0 3.0 0.00 0.30 0.00 84 1007.4
20260901061515 60 1 3.0 3.0 0.00 0.30 0.00 84 1007.5
20260901060950 60 1 3.0 3.0 0.00 0.30 0.00 84 1007.4
20260901060426 60 1 3.0 3.0 0.00 0.30 0.00 84 1007.5
20260901060247 60 1 3.0 3.0 0.00 0.30 0.00 84 1007.4
20260901055556 60 1 3.0 3.0 0.00 0.30 0.00 84 1007.4
20260901055321 59 1 3.0 3.0 0.00 0.30 0.00 84 1007.3
20260901054854 59 1 3.0 3.0 0.00 0.30 0.00 84 1007.3
20260901054154 59 1 3.0 3.0 0.00 0.30 0.00 85 1007.4
20260901053453 58 1 3.0 3.0 0.00 0.30 0.00 85 1007.3
20260901053116 58 1 3.0 3.0 0.00 0.30 0.00 85 1007.4
20260901052750 58 1 3.0 3.0 0.00 0.30 0.00 85 1007.5
20260901052027 58 1 3.0 3.0 0.00 0.30 0.00 85 1007.4
20260901051348 58 1 3.0 3.0 0.00 0.30 0.00 85 1007.4
20260901050924 58 1 3.0 3.0 0.00 0.30 0.00 85 1007.4
20260901050657 58 1 3.0 3.0 0.00 0.30 0.00 85 1007.4
20260901045956 28 1 3.0 3.0 0.00 0.30 0.00 82 1007.5
20260901045821 57 1 3.0 3.0 0.00 0.30 0.00 80 1007.5
20260901045255 9 1 3.0 3.0 0.00 0.30 0.00 85 1007.5
20260901044718 57 1 3.0 3.0 0.00 0.30 0.00 79 1007.5
20260901044552 57 1 3.0 3.0 0.00 0.30 0.00 84 1007.4
20260901043850 57 249 3.0 3.0 0.00 0.30 0.00 85 1007.4
20260901043146 57 249 3.0 3.0 0.00 0.30 0.00 85 1007.5
20260901042456 57 249 3.0 3.0 0.00 0.30 0.00 86 1007.4
20260901041754 57 249 3.0 3.0 0.00 0.30 0.00 86 1007.3
20260901041052 57 249 3.0 3.0 0.00 0.30 0.00 86 1007.3
20260901040350 57 249 3.0 3.0 0.00 0.30 0.00 86 1007.3
20260901035649 57 249 3.0 3.0 0.00 0.30 0.00 86 1007.3
20260901034947 57 249 3.0 3.0 0.00 0.30 0.00 86 1007.3
20260901034257 57 249 3.0 3.0 0.00 0.30 0.00 86 1007.2
20260901033555 57 249 3.0 3.0 0.00 0.30 0.00 86 1007.2
20260901032853 57 249 3.0 3.0 0.00 0.30 0.00 86 1007.2
20260901032151 57 249 3.0 3.0 0.00 0.30 0.00 86 1007.1
20260901031449 57 249 3.0 3.0 0.00 0.30 0.00 86 1007.1
20260901030746 57 249 3.0 3.0 0.00 0.30 0.00 86 1007.1
20260901030057 57 249 3.0 3.0 0.00 0.30 0.00 86 1006.9
20260901025354 57 249 3.0 3.0 0.00 0.30 0.00 86 1007.0
20260901024652 57 249 3.0 3.0 0.00 0.32 0.00 86 1007.0
20260901023950 57 249 3.0 3.0 0.00 0.32 0.00 86 1007.0
20260901023249 57 249 3.0 3.0 0.00 0.32 0.00 86 1006.9
20260901022546 57 249 3.0 3.0 0.00 0.32 0.00 86 1006.8
20260901021909 57 249 3.0 3.0 0.00 0.32 0.00 86 1006.7
20260901021155 58 249 3.0 3.0 0.00 0.32 0.00 86 1006.7
20260901020455 58 249 3.0 3.0 0.00 0.32 0.00 86 1006.7
20260901015754 58 249 3.0 3.0 0.00 0.32 0.00 86 1006.6
20260901015050 58 249 3.0 3.0 0.00 0.32 0.00 86 1006.6
20260901014348 58 249 3.0 3.0 0.00 0.32 0.00 86 1006.5
20260901013657 58 249 3.0 3.0 0.00 0.32 0.00 86 1006.6
20260901012956 58 249 3.0 3.0 0.00 0.32 0.00 86 1006.5
20260901012255 58 249 3.0 3.0 0.00 0.32 0.00 86 1006.6
20260901011554 58 249 3.0 3.0 0.00 0.32 0.00 86 1006.6
20260901010852 58 249 3.0 3.0 0.00 0.32 0.00 86 1006.8
20260901010150 58 249 3.0 3.0 0.00 0.32 0.00 86 1006.7
20260901005447 58 249 3.0 3.0 0.00 0.32 0.00 86 1006.7
20260901004757 58 249 3.0 3.0 0.00 0.32 0.00 86 1006.7
20260901004055 58 249 3.0 3.0 0.00 0.32 0.00 86 1006.8
20260901003352 58 249 3.0 3.0 0.00 0.32 0.00 86 1006.7
20260901002650 58 249 3.0 3.0 0.00 0.32 0.00 86 1006.8
20260901001947 58 249 3.0 3.0 0.00 0.32 0.00 86 1006.7
20260901001256 58 249 3.0 3.0 0.00 0.32 0.00 86 1006.7
20260901000554 58 249 3.0 3.0 0.00 0.32 0.00 86 1006.7
20260831235852 58 249 3.0 3.0 0.00 0.32 0.00 86 1006.6
20260831235150 58 249 3.0 3.0 0.00 0.32 0.00 85 1006.7
20260831234446 58 249 3.0 3.0 0.00 0.32 0.00 85 1006.6
20260831233756 58 249 3.0 3.0 0.00 0.32 0.00 85 1006.6
20260831233054 58 249 3.0 3.0 0.00 0.32 0.00 85 1006.7
20260831232351 58 249 3.0 3.0 0.00 0.32 0.00 85 1006.7
20260831231648 58 249 3.0 3.0 0.00 0.32 0.00 85 1006.6
20260831230957 58 249 3.0 3.0 0.00 0.32 0.00 85 1006.6
20260831230255 58 249 3.0 3.0 0.00 0.32 0.00 85 1006.6
20260831225554 58 249 3.0 3.0 0.00 0.32 0.00 85 1006.5
20260831224852 58 249 3.0 3.0 0.00 0.32 0.00 85 1006.5
20260831224149 58 249 3.0 3.0 0.00 0.32 0.00 85 1006.5
20260831223448 58 249 3.0 3.0 0.00 0.32 0.00 85 1006.5
20260831222747 58 249 3.0 3.0 0.00 0.34 0.00 85 1006.4
20260831222057 58 249 3.0 3.0 0.00 0.34 0.00 85 1006.5
20260831221355 58 249 3.0 3.0 0.00 0.34 0.00 85 1006.5
20260831220653 58 249 3.0 3.0 0.00 0.34 0.00 85 1006.4
20260831215950 58 249 3.0 3.0 0.00 0.34 0.00 85 1006.4
20260831215250 58 249 3.0 3.0 0.00 0.34 0.00 85 1006.4
20260831214548 58 249 3.0 3.0 0.00 0.34 0.00 85 1006.4
20260831213857 58 249 3.0 3.0 0.00 0.34 0.00 85 1006.4
20260831213155 58 249 3.0 3.0 0.00 0.34 0.00 85 1006.4
20260831212505 58 249 3.0 3.0 0.00 0.34 0.00 85 1006.3
20260831211749 58 249 3.0 3.0 0.00 0.34 0.00 85 1006.4
20260831211047 58 249 3.0 3.0 0.00 0.34 0.00 85 1006.3
20260831210356 58 249 3.0 3.0 0.00 0.34 0.00 85 1006.3
20260831205654 58 249 3.0 3.0 0.00 0.34 0.34 85 1006.3
20260831204953 58 249 3.0 3.0 0.00 0.34 0.34 85 1006.3
20260831204252 58 249 3.0 3.0 0.00 0.34 0.34 85 1006.2
20260831203551 59 249 3.0 3.0 0.00 0.34 0.34 85 1006.3
20260831202849 59 249 3.0 3.0 0.00 0.34 0.34 85 1006.1
20260831202146 59 249 3.0 3.0 0.00 0.34 0.34 85 1006.2
20260831201456 59 249 3.0 3.0 0.00 0.34 0.34 85 1006.1
20260831200756 59 249 3.0 3.0 0.00 0.34 0.34 85 1006.0
20260831200054 59 249 3.0 3.0 0.00 0.34 0.34 85 1006.0
20260831195351 59 249 3.0 3.0 0.00 0.34 0.34 85 1005.9
20260831194649 59 249 3.0 3.0 0.00 0.34 0.34 85 1006.0
20260831193948 59 249 3.0 3.0 0.00 0.34 0.34 85 1006.0
20260831193247 59 249 3.0 3.0 0.00 0.34 0.34 85 1006.0
20260831192546 59 249 3.0 3.0 0.00 0.34 0.34 85 1006.0
20260831191856 59 249 3.0 3.0 0.00 0.34 0.34 85 1005.9
20260831191153 59 249 3.0 3.0 0.00 0.34 0.34 85 1005.9
20260831190452 59 249 3.0 3.0 0.00 0.34 0.34 85 1005.9
20260831185750 59 249 3.0 3.0 0.00 0.34 0.34 85 1005.8
20260831185049 59 249 3.0 3.0 0.00 0.34 0.34 85 1005.8
20260831184348 60 249 3.0 3.0 0.00 0.34 0.34 85 1005.8
20260831183657 60 249 3.0 3.0 0.00 0.34 0.34 85 1005.8
20260831182955 60 249 3.0 3.0 0.00 0.34 0.34 85 1005.8
20260831182253 60 249 3.0 3.0 0.00 0.34 0.34 85 1005.8
20260831181551 60 249 3.0 3.0 0.00 0.34 0.34 85 1005.7
20260831180849 60 249 3.0 3.0 0.00 0.34 0.34 85 1005.5
20260831180157 60 249 3.0 3.0 0.00 0.34 0.34 85 1005.5
20260831175456 60 249 3.0 3.0 0.00 0.34 0.34 84 1005.6
20260831174754 60 249 3.0 3.0 0.00 0.34 0.34 84 1005.6
20260831174051 60 249 3.0 3.0 0.00 0.34 0.34 84 1005.6
20260831173349 60 249 3.0 3.0 0.00 0.34 0.34 84 1005.5
20260831172658 60 249 3.0 3.0 0.00 0.34 0.34 84 1005.5
20260831171956 61 249 3.0 3.0 0.00 0.34 0.34 84 1005.5
20260831171252 61 249 3.0 3.0 0.00 0.34 0.34 84 1005.5
20260831170550 61 249 3.0 3.0 0.00 0.34 0.34 84 1005.4
20260831165849 61 249 3.0 3.0 0.00 0.34 0.34 84 1005.4
20260831165148 61 249 3.0 3.0 0.00 0.34 0.34 84 1005.4
20260831164458 61 249 3.0 3.0 0.00 0.34 0.34 84 1005.3
20260831163757 61 249 3.0 3.0 0.00 0.34 0.34 84 1005.2
20260831163054 61 249 3.0 3.0 0.00 0.34 0.34 84 1005.2
20260831162352 62 249 3.0 3.0 0.00 0.34 0.34 84 1005.2
20260831161649 62 249 3.0 3.0 0.00 0.34 0.34 84 1005.1
20260831160947 62 249 3.0 3.0 0.00 0.34 0.34 84 1005.2
20260831160257 62 249 3.0 3.0 0.00 0.34 0.34 84 1005.1
20260831155554 63 249 3.0 3.0 0.00 0.34 0.34 83 1005.0
20260831154852 63 249 3.0 3.0 0.00 0.34 0.34 83 1005.0
20260831154149 63 249 3.0 3.0 0.00 0.34 0.34 83 1005.0
20260831153447 63 249 3.0 3.0 0.00 0.34 0.34 83 1005.0
20260831152756 64 249 3.0 3.0 0.00 0.34 0.34 83 1004.9
20260831152055 64 249 3.0 3.0 0.00 0.34 0.34 83 1004.9
20260831151352 64 249 3.0 3.0 0.00 0.34 0.34 84 1005.0
20260831150649 65 249 3.0 3.0 0.00 0.34 0.34 84 1005.0
20260831145948 66 249 3.0 3.0 0.00 0.34 0.34 83 1005.1
20260831145247 66 249 3.0 3.0 0.00 0.34 0.34 83 1005.0
20260831144557 65 249 3.0 3.0 0.00 0.34 0.34 84 1005.1
20260831143855 65 249 3.0 3.0 0.00 0.34 0.34 84 1005.1
20260831143152 65 249 3.0 3.0 0.00 0.34 0.34 84 1005.0
20260831142450 66 249 3.0 3.0 0.00 0.34 0.34 84 1005.0
20260831141748 66 249 3.0 3.0 0.00 0.34 0.34 84 1004.9
20260831141057 66 249 3.0 3.0 0.00 0.34 0.34 84 1005.0
20260831140723 67 249 3.0 3.0 0.00 0.34 0.34 84 1005.0
20260831140354 67 249 3.0 3.0 0.00 0.34 0.34 83 1005.1
20260831135653 67 249 3.0 3.0 0.00 0.34 0.34 83 1005.0
20260831135618 67 249 3.0 3.0 0.00 0.34 0.34 83 1005.1
20260831134953 67 249 3.0 3.0 0.00 0.34 0.34 83 1005.0
20260831134516 67 249 3.0 3.0 0.00 0.34 0.34 83 1005.0
20260831134250 67 249 3.0 3.0 0.00 0.34 0.34 83 1005.0
20260831133549 68 249 3.0 3.0 0.00 0.34 0.34 84 1005.0
20260831133426 68 249 3.0 3.0 0.00 0.34 0.34 83 1005.0
20260831132848 68 249 3.0 3.0 0.00 0.34 0.34 83 1005.1
20260831132325 67 249 3.0 3.0 0.00 0.34 0.34 83 1005.0
20260831132147 66 249 3.0 3.0 0.00 0.34 0.34 84 1005.0
20260831131446 65 249 3.0 3.0 0.04 0.34 0.34 84 1005.0
20260831131223 65 249 3.0 3.0 0.06 0.34 0.34 84 1005.1
20260831130757 64 249 3.0 3.0 0.06 0.34 0.34 84 1005.1
20260831130054 63 249 3.0 3.0 0.08 0.34 0.34 85 1005.1
20260831125352 62 249 3.0 3.0 0.10 0.34 0.34 85 1005.1
20260831125015 62 249 3.0 3.0 0.12 0.34 0.34 85 1005.1
20260831124650 62 249 3.0 3.0 0.12 0.34 0.34 85 1005.1
20260831123926 62 249 3.0 3.0 0.12 0.34 0.34 85 1005.0
20260831123246 62 249 3.0 3.0 0.12 0.34 0.34 85 1005.0
20260831122822 62 249 3.0 3.0 0.12 0.34 0.34 85 1005.1
20260831122555 62 249 3.0 3.0 0.12 0.34 0.34 85 1005.0
20260831121853 61 249 3.0 3.0 0.14 0.34 0.34 85 1005.0
20260831121718 61 249 3.0 3.0 0.12 0.32 0.32 85 1005.0
20260831121151 61 249 3.0 3.0 0.08 0.28 0.28 85 1005.0
20260831120615 61 249 3.0 3.0 0.08 0.28 0.28 85 1005.0
20260831120449 61 249 3.0 3.0 0.08 0.28 0.28 85 1005.0
20260831115748 61 249 3.0 3.0 0.04 0.24 0.24 85 1005.1
20260831115525 61 249 3.0 3.0 0.04 0.24 0.24 85 1005.1
20260831115047 61 249 3.0 3.0 0.04 0.24 0.24 85 1005.1
20260831114358 61 249 3.0 3.0 0.02 0.22 0.22 85 1005.1
20260831113656 61 249 3.0 3.0 0.02 0.22 0.22 85 1005.2
20260831113321 61 249 3.0 3.0 0.02 0.22 0.22 85 1005.2
20260831112954 61 249 3.0 3.0 0.02 0.22 0.22 85 1005.3
20260831112252 60 249 3.0 3.0 0.00 0.20 0.20 85 1005.3
20260831112217 60 249 3.0 3.0 0.00 0.20 0.20 85 1005.3
20260831111549 60 249 3.0 3.0 0.00 0.22 0.20 85 1005.4
20260831111125 60 249 3.0 3.0 0.02 0.22 0.20 85 1005.4
20260831110847 60 249 3.0 3.0 0.02 0.22 0.20 85 1005.3
20260831110157 60 249 3.0 3.0 0.02 0.22 0.20 85 1005.3
20260831110021 60 249 3.0 3.0 0.02 0.22 0.20 85 1005.3
20260831105454 60 249 3.0 3.0 0.02 0.22 0.20 85 1005.4
20260831104918 60 249 3.0 3.0 0.02 0.22 0.20 85 1005.4
20260831104752 60 249 3.0 3.0 0.02 0.22 0.20 85 1005.4
20260831104050 60 249 3.0 3.0 0.04 0.24 0.20 85 1005.5
20260831103827 60 249 3.0 3.0 0.04 0.24 0.20 85 1005.5
20260831103348 60 249 3.0 3.0 0.04 0.24 0.20 85 1005.5
20260831102725 60 249 3.0 3.0 0.04 0.24 0.20 86 1005.5
20260831102647 60 249 3.0 3.0 0.04 0.24 0.20 86 1005.5
20260831101957 60 249 3.0 3.0 0.06 0.24 0.20 86 1005.4
20260831101716 60 249 3.0 3.0 0.06 0.26 0.20 86 1005.5
20260831101255 60 249 3.0 3.0 0.04 0.24 0.18 86 1005.5
20260831100554 60 249 3.0 3.0 0.04 0.24 0.18 86 1005.5
20260831100518 60 249 3.0 3.0 0.04 0.24 0.18 86 1005.5
20260831095852 60 249 3.0 3.0 0.06 0.24 0.18 86 1005.5
20260831095416 60 249 3.0 3.0 0.06 0.24 0.18 86 1005.5
20260831095151 60 249 3.0 3.0 0.06 0.24 0.18 86 1005.5
20260831094448 61 249 3.0 3.0 0.04 0.22 0.16 86 1005.5
20260831094325 61 249 3.0 3.0 0.04 0.22 0.16 86 1005.5
20260831093746 61 249 3.0 3.0 0.06 0.22 0.16 86 1005.6
20260831093223 60 249 3.0 3.0 0.06 0.22 0.16 86 1005.5
20260831093057 60 249 3.0 3.0 0.06 0.22 0.16 86 1005.5
20260831092354 60 249 3.0 3.0 0.06 0.22 0.16 86 1005.6
20260831092119 60 249 3.0 3.0 0.04 0.20 0.14 86 1005.6
20260831091652 60 249 3.0 3.0 0.04 0.20 0.14 86 1005.6
20260831090950 60 249 3.0 3.0 0.04 0.20 0.14 86 1005.5
20260831090249 60 249 3.0 3.0 0.06 0.20 0.14 86 1005.6
20260831085925 60 249 3.0 3.0 0.04 0.18 0.12 86 1005.6
20260831085547 60 249 3.0 3.0 0.04 0.18 0.12 86 1005.6
20260831084856 60 249 3.0 3.0 0.04 0.18 0.12 86 1005.6
20260831084823 60 249 3.0 3.0 0.04 0.18 0.12 86 1005.6
20260831084154 60 249 3.0 3.0 0.04 0.18 0.12 86 1005.6
20260831083718 60 249 3.0 3.0 0.02 0.16 0.10 86 1005.6
20260831083452 60 249 3.0 3.0 0.02 0.16 0.10 86 1005.6
20260831082751 60 249 3.0 3.0 0.02 0.16 0.10 86 1005.7
20260831082616 60 249 3.0 3.0 0.04 0.16 0.10 86 1005.7
20260831082050 60 249 3.0 3.0 0.04 0.16 0.10 86 1005.7
20260831081526 60 249 3.0 3.0 0.04 0.16 0.10 86 1005.7
20260831081347 60 249 3.0 3.0 0.04 0.16 0.10 86 1005.8
20260831080647 60 249 3.0 3.0 0.02 0.14 0.08 86 1005.8
20260831080424 60 249 3.0 3.0 0.02 0.14 0.08 86 1005.8
20260831075957 60 249 3.0 3.0 0.04 0.14 0.08 86 1005.8
20260831075254 60 249 3.0 3.0 0.04 0.14 0.08 86 1005.9
20260831074553 60 249 3.0 3.0 0.04 0.14 0.08 86 1005.9
20260831074217 60 249 3.0 3.0 0.04 0.14 0.08 86 1005.9
20260831073850 60 249 3.0 3.0 0.04 0.14 0.08 86 1005.9
20260831073126 60 249 3.0 3.0 0.04 0.14 0.08 86 1005.9
20260831072447 60 249 3.0 3.0 0.02 0.12 0.06 86 1006.0
20260831072022 60 249 3.0 3.0 0.02 0.12 0.06 86 1006.1
20260831071756 60 249 3.0 3.0 0.02 0.12 0.06 86 1006.1
20260831071054 60 249 3.0 3.0 0.02 0.12 0.06 86 1006.1
20260831070919 60 249 3.0 3.0 0.02 0.12 0.06 86 1006.1
20260831070353 60 249 3.0 3.0 0.02 0.12 0.06 86 1006.1